AAL224 KLAX-KSFO

Flight info

Callsign AAL224
Flight time 0h 57m
Altitude 36000
Route SUMMR2 STOKD SERFR SERFR4
Aircraft B789/H-SDE1E2E3FGHIJ2J3J4J5M1RWXY/LB1D1

Departure

Time 2026-04-20 00:13
Airport Los Angeles International Airport (KLAX)

Arrival

Time 2026-04-20 01:10
Airport San Francisco International Airport (KSFO)
Time Latitude Longitude Altitude Speed Heading
2026-04-19 23:33 33.94161 -118.40765 131 ft 0 kts 83°
2026-04-19 23:52 33.94161 -118.40772 128 ft 2 kts 83°
2026-04-19 23:53 33.94159 -118.40791 131 ft 2 kts 86°
2026-04-19 23:53 33.94159 -118.40811 131 ft 2 kts 96°
2026-04-19 23:53 33.94162 -118.40831 131 ft 2 kts 128°
2026-04-19 23:53 33.94175 -118.40843 125 ft 2 kts 170°
2026-04-19 23:54 33.94182 -118.40845 122 ft 0 kts 175°
2026-04-19 23:56 33.94179 -118.40845 126 ft 1 kts 175°
2026-04-19 23:56 33.94155 -118.40842 122 ft 4 kts 173°
2026-04-19 23:57 33.94124 -118.40838 129 ft 4 kts 173°
2026-04-19 23:57 33.94093 -118.40833 129 ft 5 kts 173°
2026-04-19 23:57 33.94060 -118.40829 129 ft 5 kts 173°
2026-04-19 23:57 33.94028 -118.40824 126 ft 5 kts 173°
2026-04-19 23:58 33.93983 -118.40818 126 ft 8 kts 173°
2026-04-19 23:58 33.93929 -118.40808 126 ft 8 kts 166°
2026-04-19 23:58 33.93908 -118.40795 128 ft 0 kts 151°
2026-04-19 23:58 33.93907 -118.40795 128 ft 1 kts 152°
2026-04-19 23:59 33.93889 -118.40806 122 ft 2 kts 225°
2026-04-19 23:59 33.93880 -118.40837 127 ft 8 kts 252°
2026-04-19 23:59 33.93869 -118.40898 124 ft 7 kts 259°
2026-04-19 23:59 33.93862 -118.40956 122 ft 7 kts 264°
2026-04-20 00:00 33.93857 -118.41013 131 ft 9 kts 263°
2026-04-20 00:00 33.93850 -118.41103 131 ft 11 kts 270°
2026-04-20 00:00 33.93892 -118.41161 127 ft 11 kts 336°
2026-04-20 00:00 33.93969 -118.41177 125 ft 11 kts 352°
2026-04-20 00:01 33.93989 -118.41180 128 ft 0 kts 352°
2026-04-20 00:02 33.93992 -118.41181 128 ft 2 kts 352°
2026-04-20 00:02 33.94022 -118.41214 129 ft 10 kts 307°
2026-04-20 00:02 33.94071 -118.41283 128 ft 10 kts 331°
2026-04-20 00:03 33.94139 -118.41302 127 ft 10 kts 351°
2026-04-20 00:03 33.94206 -118.41313 127 ft 10 kts 352°
2026-04-20 00:03 33.94273 -118.41324 130 ft 10 kts 352°
2026-04-20 00:03 33.94340 -118.41336 128 ft 10 kts 352°
2026-04-20 00:04 33.94408 -118.41347 128 ft 10 kts 352°
2026-04-20 00:04 33.94475 -118.41360 125 ft 10 kts 351°
2026-04-20 00:04 33.94543 -118.41372 128 ft 10 kts 353°
2026-04-20 00:04 33.94607 -118.41376 129 ft 9 kts 357°
2026-04-20 00:05 33.94669 -118.41382 127 ft 9 kts 354°
2026-04-20 00:05 33.94736 -118.41391 128 ft 11 kts 354°
2026-04-20 00:05 33.94782 -118.41347 129 ft 8 kts 68°
2026-04-20 00:05 33.94799 -118.41240 127 ft 16 kts 82°
2026-04-20 00:06 33.94813 -118.41112 131 ft 15 kts 83°
2026-04-20 00:06 33.94825 -118.40983 126 ft 15 kts 83°
2026-04-20 00:06 33.94838 -118.40846 131 ft 20 kts 83°
2026-04-20 00:06 33.94856 -118.40680 131 ft 20 kts 82°
2026-04-20 00:07 33.94873 -118.40516 127 ft 20 kts 83°
2026-04-20 00:07 33.94889 -118.40355 128 ft 19 kts 83°
2026-04-20 00:07 33.94905 -118.40197 123 ft 18 kts 83°
2026-04-20 00:07 33.94921 -118.40046 127 ft 18 kts 83°
2026-04-20 00:08 33.94936 -118.39956 126 ft 4 kts 65°
2026-04-20 00:08 33.94943 -118.39946 129 ft 0 kts 49°
2026-04-20 00:12 33.94948 -118.39940 121 ft 5 kts 47°
2026-04-20 00:12 33.95005 -118.39922 130 ft 8 kts 353°
2026-04-20 00:12 33.95034 -118.39956 127 ft 6 kts 294°
2026-04-20 00:12 33.95033 -118.40036 129 ft 16 kts 264°
2026-04-20 00:13 33.95001 -118.40354 131 ft 70 kts 263°
2026-04-20 00:13 33.94910 -118.41240 132 ft 141 kts 263°
2026-04-20 00:13 33.94782 -118.42642 300 ft 186 kts 268°
2026-04-20 00:13 33.94631 -118.44211 1262 ft 187 kts 261°
2026-04-20 00:14 33.94463 -118.45798 2232 ft 197 kts 262°
2026-04-20 00:14 33.94323 -118.47459 2941 ft 210 kts 263°
2026-04-20 00:14 33.94236 -118.49336 3412 ft 234 kts 266°
2026-04-20 00:14 33.94193 -118.51376 4017 ft 254 kts 265°
2026-04-20 00:15 33.94074 -118.53549 4900 ft 265 kts 263°
2026-04-20 00:15 33.93881 -118.55831 5540 ft 273 kts 261°
2026-04-20 00:15 33.93651 -118.58175 5698 ft 289 kts 261°
2026-04-20 00:15 33.93456 -118.60533 5657 ft 280 kts 262°
2026-04-20 00:16 33.93298 -118.62851 6167 ft 279 kts 263°
2026-04-20 00:16 33.93121 -118.65200 6695 ft 277 kts 262°
2026-04-20 00:16 33.92946 -118.67546 7331 ft 284 kts 263°
2026-04-20 00:16 33.92802 -118.69895 8047 ft 285 kts 264°
2026-04-20 00:17 33.92639 -118.72314 8262 ft 294 kts 260°
2026-04-20 00:17 33.92371 -118.74700 8553 ft 283 kts 260°
2026-04-20 00:17 33.92154 -118.77099 9097 ft 288 kts 262°
2026-04-20 00:17 33.91986 -118.79501 9650 ft 292 kts 262°
2026-04-20 00:18 33.91808 -118.81924 10160 ft 291 kts 262°
2026-04-20 00:18 33.91739 -118.84432 10646 ft 310 kts 272°
2026-04-20 00:18 33.91849 -118.87110 11195 ft 329 kts 269°
2026-04-20 00:18 33.91892 -118.89937 11803 ft 345 kts 269°
2026-04-20 00:19 33.91965 -118.92817 12716 ft 352 kts 269°
2026-04-20 00:19 33.92067 -118.95783 13673 ft 357 kts 269°
2026-04-20 00:19 33.92162 -118.98788 14556 ft 361 kts 270°
2026-04-20 00:19 33.92572 -119.01789 15442 ft 369 kts 286°
2026-04-20 00:20 33.93740 -119.04576 16291 ft 377 kts 299°
2026-04-20 00:20 33.95125 -119.07285 17145 ft 381 kts 299°
2026-04-20 00:20 33.96543 -119.10000 18003 ft 386 kts 299°
2026-04-20 00:20 33.97974 -119.12752 18774 ft 389 kts 299°
2026-04-20 00:21 33.99404 -119.15538 19517 ft 392 kts 299°
2026-04-20 00:21 34.00967 -119.18243 20276 ft 397 kts 311°
2026-04-20 00:21 34.03078 -119.20430 21025 ft 403 kts 322°
2026-04-20 00:21 34.04590 -119.21738 21478 ft 405 kts 322°
2026-04-20 00:22 34.07687 -119.24383 22439 ft 410 kts 322°
2026-04-20 00:22 34.10016 -119.26376 23124 ft 412 kts 322°
2026-04-20 00:22 34.12359 -119.28397 23770 ft 415 kts 322°
2026-04-20 00:22 34.14712 -119.30429 24340 ft 418 kts 322°
2026-04-20 00:23 34.17085 -119.32471 24914 ft 420 kts 322°
2026-04-20 00:23 34.19446 -119.34504 25482 ft 422 kts 322°
2026-04-20 00:23 34.21842 -119.36571 26031 ft 424 kts 322°
2026-04-20 00:23 34.24251 -119.38653 26581 ft 426 kts 322°
2026-04-20 00:24 34.26674 -119.40746 27126 ft 428 kts 322°
2026-04-20 00:24 34.29104 -119.42846 27665 ft 430 kts 322°
2026-04-20 00:24 34.31542 -119.44956 28171 ft 432 kts 322°
2026-04-20 00:24 34.33998 -119.47082 28701 ft 435 kts 322°
2026-04-20 00:25 34.36461 -119.49217 29210 ft 437 kts 322°
2026-04-20 00:25 34.38938 -119.51365 29706 ft 439 kts 322°
2026-04-20 00:25 34.41368 -119.53617 30166 ft 439 kts 314°
2026-04-20 00:25 34.43507 -119.56183 30551 ft 440 kts 313°
2026-04-20 00:26 34.45667 -119.58831 30927 ft 443 kts 312°
2026-04-20 00:26 34.47125 -119.60633 31217 ft 444 kts 312°
2026-04-20 00:26 34.49295 -119.63313 31579 ft 447 kts 312°
2026-04-20 00:26 34.51483 -119.66000 31955 ft 449 kts 312°
2026-04-20 00:27 34.53681 -119.68701 32321 ft 451 kts 312°
2026-04-20 00:27 34.55885 -119.71421 32679 ft 453 kts 312°
2026-04-20 00:27 34.58101 -119.74158 33039 ft 455 kts 312°
2026-04-20 00:27 34.60323 -119.76902 33380 ft 457 kts 312°
2026-04-20 00:28 34.62558 -119.79662 33713 ft 459 kts 312°
2026-04-20 00:28 34.64799 -119.82434 34020 ft 461 kts 312°
2026-04-20 00:28 34.67053 -119.85225 34290 ft 463 kts 312°
2026-04-20 00:28 34.69314 -119.88026 34556 ft 465 kts 311°
2026-04-20 00:29 34.71580 -119.90835 34924 ft 465 kts 311°
2026-04-20 00:29 34.73842 -119.93641 35334 ft 463 kts 311°
2026-04-20 00:29 34.76094 -119.96438 35715 ft 462 kts 311°
2026-04-20 00:29 34.78345 -119.99238 35942 ft 465 kts 311°
2026-04-20 00:30 34.80612 -120.02061 35950 ft 466 kts 311°
2026-04-20 00:30 34.85084 -120.07627 35950 ft 463 kts 311°
2026-04-20 00:31 34.89580 -120.13238 35957 ft 462 kts 311°
2026-04-20 00:31 34.94069 -120.18847 35962 ft 462 kts 311°
2026-04-20 00:32 34.98546 -120.24453 35967 ft 461 kts 311°
2026-04-20 00:32 35.03019 -120.30061 35975 ft 462 kts 311°
2026-04-20 00:33 35.07500 -120.35690 35978 ft 462 kts 311°
2026-04-20 00:33 35.12177 -120.41084 35973 ft 463 kts 314°
2026-04-20 00:34 35.16912 -120.46400 35961 ft 462 kts 314°
2026-04-20 00:34 35.21648 -120.51706 35970 ft 462 kts 314°
2026-04-20 00:35 35.26386 -120.57032 35971 ft 463 kts 314°
2026-04-20 00:35 35.31125 -120.62363 35973 ft 462 kts 313°
2026-04-20 00:36 35.35846 -120.67686 35975 ft 461 kts 313°
2026-04-20 00:36 35.40581 -120.73032 35975 ft 462 kts 313°
2026-04-20 00:37 35.45306 -120.78376 35981 ft 462 kts 313°
2026-04-20 00:37 35.50188 -120.83509 35989 ft 464 kts 319°
2026-04-20 00:38 35.55334 -120.88302 35983 ft 464 kts 318°
2026-04-20 00:38 35.60472 -120.93062 35982 ft 464 kts 318°
2026-04-20 00:39 35.65619 -120.97852 35985 ft 464 kts 318°
2026-04-20 00:39 35.70780 -121.02659 35976 ft 464 kts 318°
2026-04-20 00:40 35.75932 -121.07465 35975 ft 464 kts 318°
2026-04-20 00:40 35.81087 -121.12283 35980 ft 464 kts 318°
2026-04-20 00:41 35.86233 -121.17100 35974 ft 464 kts 318°
2026-04-20 00:41 35.91378 -121.21925 35968 ft 465 kts 318°
2026-04-20 00:42 35.96520 -121.26755 35967 ft 465 kts 317°
2026-04-20 00:42 36.01667 -121.31597 35961 ft 465 kts 317°
2026-04-20 00:43 36.06791 -121.36404 35944 ft 467 kts 321°
2026-04-20 00:43 36.12316 -121.40728 35961 ft 469 kts 322°
2026-04-20 00:44 36.17763 -121.44987 35879 ft 453 kts 322°
2026-04-20 00:44 36.20407 -121.47041 35710 ft 444 kts 322°
2026-04-20 00:44 36.23006 -121.49078 35475 ft 438 kts 322°
2026-04-20 00:44 36.25569 -121.51092 35199 ft 434 kts 322°
2026-04-20 00:45 36.28109 -121.53079 34896 ft 430 kts 322°
2026-04-20 00:45 36.30637 -121.55058 34599 ft 430 kts 322°
2026-04-20 00:45 36.33183 -121.57059 34608 ft 435 kts 322°
2026-04-20 00:45 36.35723 -121.59050 34258 ft 432 kts 322°
2026-04-20 00:46 36.38269 -121.61052 33634 ft 435 kts 322°
2026-04-20 00:46 36.40805 -121.63046 32993 ft 438 kts 322°
2026-04-20 00:46 36.43382 -121.65072 32348 ft 438 kts 322°
2026-04-20 00:46 36.45965 -121.67105 31719 ft 438 kts 322°
2026-04-20 00:47 36.48540 -121.69134 31107 ft 438 kts 322°
2026-04-20 00:47 36.51106 -121.71158 30307 ft 437 kts 322°
2026-04-20 00:47 36.53673 -121.73186 29391 ft 437 kts 322°
2026-04-20 00:47 36.56237 -121.75214 28459 ft 437 kts 322°
2026-04-20 00:48 36.58808 -121.77247 27549 ft 436 kts 322°
2026-04-20 00:48 36.61366 -121.79272 26673 ft 435 kts 322°
2026-04-20 00:48 36.63916 -121.81292 25832 ft 434 kts 322°
2026-04-20 00:48 36.66466 -121.83315 25035 ft 433 kts 322°
2026-04-20 00:49 36.69008 -121.85333 24236 ft 431 kts 322°
2026-04-20 00:49 36.71516 -121.87323 23679 ft 424 kts 322°
2026-04-20 00:49 36.73813 -121.89508 23165 ft 404 kts 307°
2026-04-20 00:49 36.75351 -121.92228 22852 ft 379 kts 288°
2026-04-20 00:50 36.76047 -121.95369 22557 ft 370 kts 268°
2026-04-20 00:50 36.75873 -121.98516 22252 ft 360 kts 253°
2026-04-20 00:50 36.75020 -122.01381 21935 ft 349 kts 236°
2026-04-20 00:50 36.73522 -122.03703 21614 ft 343 kts 217°
2026-04-20 00:51 36.71451 -122.05132 21345 ft 343 kts 197°
2026-04-20 00:51 36.69047 -122.05466 21090 ft 356 kts 176°
2026-04-20 00:51 36.66672 -122.04678 20827 ft 363 kts 159°
2026-04-20 00:51 36.64479 -122.03089 20499 ft 367 kts 150°
2026-04-20 00:52 36.62418 -122.01217 20111 ft 366 kts 147°
2026-04-20 00:52 36.60422 -121.99263 19698 ft 364 kts 146°
2026-04-20 00:52 36.58458 -121.97289 19268 ft 362 kts 146°
2026-04-20 00:52 36.56512 -121.95311 18858 ft 360 kts 144°
2026-04-20 00:53 36.54829 -121.92992 18465 ft 365 kts 129°
2026-04-20 00:53 36.53652 -121.90180 18072 ft 370 kts 114°
2026-04-20 00:53 36.53080 -121.87042 17634 ft 376 kts 99°
2026-04-20 00:53 36.53181 -121.83784 17257 ft 379 kts 83°
2026-04-20 00:54 36.53952 -121.80675 17154 ft 375 kts 68°
2026-04-20 00:54 36.55315 -121.77942 16944 ft 372 kts 52°
2026-04-20 00:54 36.57187 -121.75744 16645 ft 370 kts 36°
2026-04-20 00:54 36.59429 -121.74217 16306 ft 367 kts 20°
2026-04-20 00:55 36.61889 -121.73447 15980 ft 363 kts
2026-04-20 00:55 36.64376 -121.73460 15712 ft 349 kts 349°
2026-04-20 00:55 36.66664 -121.74180 15564 ft 330 kts 335°
2026-04-20 00:55 36.68682 -121.75458 15347 ft 324 kts 324°
2026-04-20 00:56 36.70629 -121.76905 15103 ft 327 kts 324°
2026-04-20 00:56 36.72600 -121.78374 15067 ft 337 kts 324°
2026-04-20 00:56 36.74632 -121.79902 15062 ft 339 kts 324°
2026-04-20 00:56 36.76670 -121.81429 15037 ft 348 kts 324°
2026-04-20 00:57 36.78825 -121.83050 15046 ft 371 kts 325°
2026-04-20 00:57 36.81011 -121.84685 15046 ft 369 kts 325°
2026-04-20 00:57 36.83267 -121.86374 14861 ft 377 kts 325°
2026-04-20 00:57 36.85464 -121.88024 14505 ft 370 kts 325°
2026-04-20 00:58 36.87668 -121.89682 14138 ft 368 kts 325°
2026-04-20 00:58 36.89858 -121.91331 13784 ft 366 kts 325°
2026-04-20 00:58 36.92034 -121.92969 13399 ft 364 kts 325°
2026-04-20 00:58 36.94206 -121.94603 13004 ft 362 kts 326°
2026-04-20 00:59 36.96525 -121.95831 12636 ft 364 kts 341°
2026-04-20 00:59 36.98945 -121.96761 12258 ft 363 kts 340°
2026-04-20 00:59 37.01348 -121.97707 11884 ft 361 kts 340°
2026-04-20 00:59 37.03720 -121.98634 11606 ft 352 kts 340°
2026-04-20 01:00 37.06008 -121.99521 11486 ft 337 kts 340°
2026-04-20 01:00 37.08195 -122.00374 11436 ft 322 kts 340°
2026-04-20 01:00 37.10306 -122.01200 11168 ft 314 kts 340°
2026-04-20 01:00 37.12376 -122.02012 10802 ft 310 kts 340°
2026-04-20 01:01 37.14426 -122.02814 10444 ft 307 kts 340°
2026-04-20 01:01 37.16446 -122.03603 10209 ft 299 kts 340°
2026-04-20 01:01 37.18373 -122.04355 10021 ft 287 kts 340°
2026-04-20 01:01 37.20269 -122.05099 10022 ft 287 kts 340°
2026-04-20 01:02 37.22189 -122.05856 9905 ft 291 kts 340°
2026-04-20 01:02 37.24108 -122.06606 9677 ft 286 kts 340°
2026-04-20 01:02 37.26021 -122.07358 9420 ft 289 kts 340°
2026-04-20 01:02 37.27922 -122.08102 9064 ft 284 kts 340°
2026-04-20 01:03 37.29817 -122.08850 8564 ft 285 kts 340°
2026-04-20 01:03 37.31699 -122.09592 8076 ft 281 kts 341°
2026-04-20 01:03 37.33565 -122.10328 7594 ft 279 kts 341°
2026-04-20 01:03 37.35417 -122.11057 7092 ft 279 kts 341°
2026-04-20 01:04 37.37268 -122.11787 6627 ft 278 kts 342°
2026-04-20 01:04 37.39107 -122.12514 6160 ft 276 kts 342°
2026-04-20 01:04 37.40925 -122.13233 6006 ft 274 kts 342°
2026-04-20 01:04 37.42589 -122.13891 5995 ft 268 kts 342°
2026-04-20 01:05 37.44339 -122.14582 5724 ft 259 kts 342°
2026-04-20 01:05 37.46022 -122.15244 5451 ft 248 kts 342°
2026-04-20 01:05 37.47634 -122.15879 5191 ft 235 kts 342°
2026-04-20 01:05 37.49143 -122.16469 4932 ft 220 kts 342°
2026-04-20 01:06 37.50599 -122.17036 4674 ft 219 kts 341°
2026-04-20 01:06 37.52050 -122.17599 4415 ft 218 kts 341°
2026-04-20 01:06 37.53462 -122.18147 4161 ft 214 kts 341°
2026-04-20 01:06 37.54780 -122.18996 3804 ft 209 kts 309°
2026-04-20 01:07 37.55298 -122.20547 3454 ft 191 kts 270°
2026-04-20 01:07 37.55570 -122.22177 3120 ft 196 kts 292°
2026-04-20 01:07 37.56354 -122.23509 2994 ft 189 kts 297°
2026-04-20 01:07 37.56887 -122.24987 2966 ft 185 kts 289°
2026-04-20 01:08 37.57451 -122.26468 2690 ft 184 kts 292°
2026-04-20 01:08 37.58058 -122.27809 2229 ft 171 kts 295°
2026-04-20 01:08 37.58632 -122.29086 1680 ft 163 kts 293°
2026-04-20 01:08 37.58973 -122.29920 1310 ft 161 kts 291°
2026-04-20 01:09 37.59450 -122.31182 934 ft 157 kts 294°
2026-04-20 01:09 37.59946 -122.32368 665 ft 150 kts 292°
2026-04-20 01:09 37.60470 -122.33586 501 ft 158 kts 296°
2026-04-20 01:09 37.60974 -122.34742 231 ft 143 kts 291°
2026-04-20 01:10 37.61407 -122.35825 50 ft 132 kts 287°
2026-04-20 01:10 37.61992 -122.37226 25 ft 60 kts 298°
2026-04-20 01:10 37.62139 -122.37585 29 ft 34 kts 296°
2026-04-20 01:11 37.62205 -122.37869 26 ft 33 kts 277°
2026-04-20 01:11 37.62229 -122.38128 29 ft 27 kts 273°
2026-04-20 01:11 37.62160 -122.38303 31 ft 20 kts 207°
2026-04-20 01:11 37.62087 -122.38291 28 ft 5 kts 139°
2026-04-20 01:12 37.62072 -122.38266 28 ft 3 kts 124°
2026-04-20 01:12 37.62066 -122.38254 28 ft 0 kts 123°
2026-04-20 01:13 37.62061 -122.38246 28 ft 6 kts 124°
2026-04-20 01:13 37.62033 -122.38185 28 ft 8 kts 119°
2026-04-20 01:13 37.62003 -122.38114 27 ft 10 kts 118°
2026-04-20 01:13 37.61969 -122.38036 26 ft 10 kts 118°
2026-04-20 01:14 37.61927 -122.37966 27 ft 10 kts 135°
2026-04-20 01:14 37.61874 -122.37914 30 ft 10 kts 146°
2026-04-20 01:14 37.61825 -122.37847 28 ft 11 kts 118°
2026-04-20 01:14 37.61794 -122.37761 26 ft 11 kts 113°
2026-04-20 01:15 37.61764 -122.37662 30 ft 13 kts 109°
2026-04-20 01:15 37.61734 -122.37561 30 ft 12 kts 112°
2026-04-20 01:15 37.61693 -122.37464 29 ft 16 kts 134°
2026-04-20 01:15 37.61562 -122.37492 28 ft 27 kts 206°
2026-04-20 01:16 37.61378 -122.37614 27 ft 29 kts 208°
2026-04-20 01:16 37.61211 -122.37724 30 ft 25 kts 207°
2026-04-20 01:16 37.61070 -122.37818 29 ft 21 kts 208°
2026-04-20 01:16 37.60953 -122.37894 27 ft 16 kts 207°
2026-04-20 01:17 37.60853 -122.37961 29 ft 16 kts 208°
2026-04-20 01:17 37.60820 -122.38043 28 ft 12 kts 274°
2026-04-20 01:17 37.60852 -122.38138 28 ft 11 kts 296°
2026-04-20 01:17 37.60876 -122.38233 29 ft 14 kts 279°
2026-04-20 01:18 37.60908 -122.38341 27 ft 13 kts 300°
2026-04-20 01:18 37.60940 -122.38439 30 ft 8 kts 262°
2026-04-20 01:18 37.60896 -122.38505 28 ft 12 kts 231°
2026-04-20 01:18 37.60917 -122.38637 29 ft 20 kts 296°
2026-04-20 01:19 37.60978 -122.38785 27 ft 18 kts 296°
2026-04-20 01:19 37.61050 -122.38837 26 ft 10 kts
2026-04-20 01:19 37.61122 -122.38797 29 ft 11 kts 27°
2026-04-20 01:19 37.61170 -122.38755 30 ft 2 kts 65°
2026-04-20 01:20 37.61168 -122.38719 28 ft 8 kts 88°
2026-04-20 01:20 37.61189 -122.38651 27 ft 0 kts 62°